iso_date,epoch_date,Year,Hour,Min,DOY,POS_DOY,Lat,Lon,BP,Ts,Ta,has_bp,has_ts,has_ta,BuoyID,Buoy_Type,Buoy_Owner,Logistics,Hemisphere
2021-08-20T00:10:56Z,1629418257,2021,0,11,232.0076,232.0076,70.06544,-52.36227,-999.00,-999.00,-999.0,no,no,no,4435358,SPIT,USIABP,ICE-PPR<br>DiskoBay,North
2021-08-20T00:21:01Z,1629418861,2021,0,21,232.0146,232.0146,70.06533,-52.36255,-999.00,-999.00,-999.0,no,no,no,4435358,SPIT,USIABP,ICE-PPR<br>DiskoBay,North
2021-08-20T00:26:03Z,1629419164,2021,0,26,232.0181,232.0181,70.06554,-52.36185,-999.00,-999.00,-999.0,no,no,no,4435358,SPIT,USIABP,ICE-PPR<br>DiskoBay,North
2021-08-20T00:51:59Z,1629420719,2021,0,52,232.0361,232.0361,70.0654,-52.36224,-999.00,-999.00,-999.0,no,no,no,4435358,SPIT,USIABP,ICE-PPR<br>DiskoBay,North
2021-08-20T00:57:01Z,1629421021,2021,0,57,232.0396,232.0396,70.06531,-52.36233,-999.00,-999.00,-999.0,no,no,no,4435358,SPIT,USIABP,ICE-PPR<br>DiskoBay,North
2021-08-20T01:02:03Z,1629421324,2021,1,2,232.0431,232.0431,70.06531,-52.36276,-999.00,-999.00,-999.0,no,no,no,4435358,SPIT,USIABP,ICE-PPR<br>DiskoBay,North
2021-08-20T01:05:57Z,1629421557,2021,1,6,232.0458,232.0458,70.06546,-52.36255,-999.00,-999.00,-999.0,no,no,no,4435358,SPIT,USIABP,ICE-PPR<br>DiskoBay,North
2021-08-20T01:19:03Z,1629422343,2021,1,19,232.0549,232.0549,70.06534,-52.36233,-999.00,-999.00,-999.0,no,no,no,4435358,SPIT,USIABP,ICE-PPR<br>DiskoBay,North
2021-08-20T01:23:57Z,1629422637,2021,1,24,232.0583,232.0583,70.06538,-52.3625,-999.00,-999.00,-999.0,no,no,no,4435358,SPIT,USIABP,ICE-PPR<br>DiskoBay,North
2021-08-20T01:28:59Z,1629422940,2021,1,29,232.0618,232.0618,70.06534,-52.36276,-999.00,-999.00,-999.0,no,no,no,4435358,SPIT,USIABP,ICE-PPR<br>DiskoBay,North
2021-08-20T01:36:02Z,1629423363,2021,1,36,232.0667,232.0667,70.0652,-52.36276,-999.00,-999.00,-999.0,no,no,no,4435358,SPIT,USIABP,ICE-PPR<br>DiskoBay,North
2021-08-20T01:40:56Z,1629423657,2021,1,41,232.0701,232.0701,70.06511,-52.3631,-999.00,-999.00,-999.0,no,no,no,4435358,SPIT,USIABP,ICE-PPR<br>DiskoBay,North
2021-08-20T01:45:59Z,1629423959,2021,1,46,232.0736,232.0736,70.06514,-52.36322,-999.00,-999.00,-999.0,no,no,no,4435358,SPIT,USIABP,ICE-PPR<br>DiskoBay,North
2021-08-20T01:51:01Z,1629424261,2021,1,51,232.0771,232.0771,70.06516,-52.36343,-999.00,-999.00,-999.0,no,no,no,4435358,SPIT,USIABP,ICE-PPR<br>DiskoBay,North
2021-08-20T01:56:03Z,1629424564,2021,1,56,232.0806,232.0806,70.06511,-52.36377,-999.00,-999.00,-999.0,no,no,no,4435358,SPIT,USIABP,ICE-PPR<br>DiskoBay,North
2021-08-20T02:01:58Z,1629424918,2021,2,2,232.0847,232.0847,70.06516,-52.3638,-999.00,-999.00,-999.0,no,no,no,4435358,SPIT,USIABP,ICE-PPR<br>DiskoBay,North
2021-08-20T02:06:00Z,1629425160,2021,2,6,232.0875,232.0875,70.06515,-52.36386,-999.00,-999.00,-999.0,no,no,no,4435358,SPIT,USIABP,ICE-PPR<br>DiskoBay,North
2021-08-20T02:11:02Z,1629425462,2021,2,11,232.091,232.091,70.06507,-52.36395,-999.00,-999.00,-999.0,no,no,no,4435358,SPIT,USIABP,ICE-PPR<br>DiskoBay,North
2021-08-20T02:15:56Z,1629425756,2021,2,16,232.0944,232.0944,70.06516,-52.36374,-999.00,-999.00,-999.0,no,no,no,4435358,SPIT,USIABP,ICE-PPR<br>DiskoBay,North
2021-08-20T02:20:58Z,1629426059,2021,2,21,232.0979,232.0979,70.06507,-52.36395,-999.00,-999.00,-999.0,no,no,no,4435358,SPIT,USIABP,ICE-PPR<br>DiskoBay,North
2021-08-20T02:26:00Z,1629426361,2021,2,26,232.1014,232.1014,70.06516,-52.36429,-999.00,-999.00,-999.0,no,no,no,4435358,SPIT,USIABP,ICE-PPR<br>DiskoBay,North
2021-08-20T02:31:03Z,1629426663,2021,2,31,232.1049,232.1049,70.06516,-52.36438,-999.00,-999.00,-999.0,no,no,no,4435358,SPIT,USIABP,ICE-PPR<br>DiskoBay,North
2021-08-20T02:35:57Z,1629426957,2021,2,36,232.1083,232.1083,70.0652,-52.36429,-999.00,-999.00,-999.0,no,no,no,4435358,SPIT,USIABP,ICE-PPR<br>DiskoBay,North
2021-08-20T02:40:59Z,1629427260,2021,2,41,232.1118,232.1118,70.06519,-52.36404,-999.00,-999.00,-999.0,no,no,no,4435358,SPIT,USIABP,ICE-PPR<br>DiskoBay,North
2021-08-20T02:46:01Z,1629427562,2021,2,46,232.1153,232.1153,70.0651,-52.36388,-999.00,-999.00,-999.0,no,no,no,4435358,SPIT,USIABP,ICE-PPR<br>DiskoBay,North
2021-08-20T02:51:04Z,1629427864,2021,2,51,232.1188,232.1188,70.0651,-52.36362,-999.00,-999.00,-999.0,no,no,no,4435358,SPIT,USIABP,ICE-PPR<br>DiskoBay,North
2021-08-20T02:55:58Z,1629428158,2021,2,56,232.1222,232.1222,70.06511,-52.36374,-999.00,-999.00,-999.0,no,no,no,4435358,SPIT,USIABP,ICE-PPR<br>DiskoBay,North
2021-08-20T03:02:00Z,1629428521,2021,3,2,232.1264,232.1264,70.0651,-52.3638,-999.00,-999.00,-999.0,no,no,no,4435358,SPIT,USIABP,ICE-PPR<br>DiskoBay,North
2021-08-20T03:06:02Z,1629428763,2021,3,6,232.1292,232.1292,70.06515,-52.36383,-999.00,-999.00,-999.0,no,no,no,4435358,SPIT,USIABP,ICE-PPR<br>DiskoBay,North
2021-08-20T03:10:56Z,1629429057,2021,3,11,232.1326,232.1326,70.06514,-52.36382,-999.00,-999.00,-999.0,no,no,no,4435358,SPIT,USIABP,ICE-PPR<br>DiskoBay,North
2021-08-20T03:15:59Z,1629429359,2021,3,16,232.1361,232.1361,70.06514,-52.36356,-999.00,-999.00,-999.0,no,no,no,4435358,SPIT,USIABP,ICE-PPR<br>DiskoBay,North
2021-08-20T03:21:01Z,1629429661,2021,3,21,232.1396,232.1396,70.06505,-52.36349,-999.00,-999.00,-999.0,no,no,no,4435358,SPIT,USIABP,ICE-PPR<br>DiskoBay,North
2021-08-20T03:26:03Z,1629429964,2021,3,26,232.1431,232.1431,70.06511,-52.36346,-999.00,-999.00,-999.0,no,no,no,4435358,SPIT,USIABP,ICE-PPR<br>DiskoBay,North
2021-08-20T03:30:57Z,1629430258,2021,3,31,232.1465,232.1465,70.06516,-52.36337,-999.00,-999.00,-999.0,no,no,no,4435358,SPIT,USIABP,ICE-PPR<br>DiskoBay,North
2021-08-20T03:36:00Z,1629430560,2021,3,36,232.15,232.15,70.06507,-52.36346,-999.00,-999.00,-999.0,no,no,no,4435358,SPIT,USIABP,ICE-PPR<br>DiskoBay,North
2021-08-20T03:41:02Z,1629430862,2021,3,41,232.1535,232.1535,70.06516,-52.36346,-999.00,-999.00,-999.0,no,no,no,4435358,SPIT,USIABP,ICE-PPR<br>DiskoBay,North
2021-08-20T03:45:56Z,1629431156,2021,3,46,232.1569,232.1569,70.06514,-52.36337,-999.00,-999.00,-999.0,no,no,no,4435358,SPIT,USIABP,ICE-PPR<br>DiskoBay,North
2021-08-20T03:51:59Z,1629431519,2021,3,52,232.1611,232.1611,70.0651,-52.36283,-999.00,-999.00,-999.0,no,no,no,4435358,SPIT,USIABP,ICE-PPR<br>DiskoBay,North
2021-08-20T03:56:00Z,1629431761,2021,3,56,232.1639,232.1639,70.06511,-52.3631,-999.00,-999.00,-999.0,no,no,no,4435358,SPIT,USIABP,ICE-PPR<br>DiskoBay,North
2021-08-20T04:02:03Z,1629432124,2021,4,2,232.1681,232.1681,70.0651,-52.36292,-999.00,-999.00,-999.0,no,no,no,4435358,SPIT,USIABP,ICE-PPR<br>DiskoBay,North
2021-08-20T04:10:59Z,1629432660,2021,4,11,232.1743,232.1743,70.06477,-52.36045,-999.00,-999.00,-999.0,no,no,no,4435358,SPIT,USIABP,ICE-PPR<br>DiskoBay,North
2021-08-20T04:16:01Z,1629432962,2021,4,16,232.1778,232.1778,70.06494,-52.36011,-999.00,-999.00,-999.0,no,no,no,4435358,SPIT,USIABP,ICE-PPR<br>DiskoBay,North
2021-08-20T04:20:55Z,1629433256,2021,4,21,232.1812,232.1812,70.06489,-52.36002,-999.00,-999.00,-999.0,no,no,no,4435358,SPIT,USIABP,ICE-PPR<br>DiskoBay,North
2021-08-20T04:36:02Z,1629434163,2021,4,36,232.1917,232.1917,70.06459,-52.35994,-999.00,-999.00,-999.0,no,no,no,4435358,SPIT,USIABP,ICE-PPR<br>DiskoBay,North
2021-08-20T04:40:56Z,1629434457,2021,4,41,232.1951,232.1951,70.06485,-52.35943,-999.00,-999.00,-999.0,no,no,no,4435358,SPIT,USIABP,ICE-PPR<br>DiskoBay,North
2021-08-20T04:45:59Z,1629434759,2021,4,46,232.1986,232.1986,70.06459,-52.35986,-999.00,-999.00,-999.0,no,no,no,4435358,SPIT,USIABP,ICE-PPR<br>DiskoBay,North
2021-08-20T04:51:01Z,1629435061,2021,4,51,232.2021,232.2021,70.06451,-52.36017,-999.00,-999.00,-999.0,no,no,no,4435358,SPIT,USIABP,ICE-PPR<br>DiskoBay,North
2021-08-20T04:56:55Z,1629435416,2021,4,57,232.2062,232.2062,70.06478,-52.35969,-999.00,-999.00,-999.0,no,no,no,4435358,SPIT,USIABP,ICE-PPR<br>DiskoBay,North
2021-08-20T05:01:58Z,1629435718,2021,5,2,232.2097,232.2097,70.06452,-52.36038,-999.00,-999.00,-999.0,no,no,no,4435358,SPIT,USIABP,ICE-PPR<br>DiskoBay,North
2021-08-20T05:06:00Z,1629435960,2021,5,6,232.2125,232.2125,70.06467,-52.35971,-999.00,-999.00,-999.0,no,no,no,4435358,SPIT,USIABP,ICE-PPR<br>DiskoBay,North
2021-08-20T05:11:02Z,1629436262,2021,5,11,232.216,232.216,70.06478,-52.35972,-999.00,-999.00,-999.0,no,no,no,4435358,SPIT,USIABP,ICE-PPR<br>DiskoBay,North
2021-08-20T05:15:56Z,1629436556,2021,5,16,232.2194,232.2194,70.06461,-52.36023,-999.00,-999.00,-999.0,no,no,no,4435358,SPIT,USIABP,ICE-PPR<br>DiskoBay,North
2021-08-20T05:20:58Z,1629436859,2021,5,21,232.2229,232.2229,70.06489,-52.35934,-999.00,-999.00,-999.0,no,no,no,4435358,SPIT,USIABP,ICE-PPR<br>DiskoBay,North
2021-08-20T05:26:00Z,1629437161,2021,5,26,232.2264,232.2264,70.0648,-52.35952,-999.00,-999.00,-999.0,no,no,no,4435358,SPIT,USIABP,ICE-PPR<br>DiskoBay,North
2021-08-20T05:31:03Z,1629437463,2021,5,31,232.2299,232.2299,70.06471,-52.35995,-999.00,-999.00,-999.0,no,no,no,4435358,SPIT,USIABP,ICE-PPR<br>DiskoBay,North
2021-08-20T05:46:01Z,1629438362,2021,5,46,232.2403,232.2403,70.06461,-52.36008,-999.00,-999.00,-999.0,no,no,no,4435358,SPIT,USIABP,ICE-PPR<br>DiskoBay,North
2021-08-20T05:51:04Z,1629438664,2021,5,51,232.2438,232.2438,70.06491,-52.35948,-999.00,-999.00,-999.0,no,no,no,4435358,SPIT,USIABP,ICE-PPR<br>DiskoBay,North
2021-08-20T05:55:58Z,1629438958,2021,5,56,232.2472,232.2472,70.06465,-52.35965,-999.00,-999.00,-999.0,no,no,no,4435358,SPIT,USIABP,ICE-PPR<br>DiskoBay,North
2021-08-20T06:02:00Z,1629439321,2021,6,2,232.2514,232.2514,70.06459,-52.36011,-999.00,-999.00,-999.0,no,no,no,4435358,SPIT,USIABP,ICE-PPR<br>DiskoBay,North
2021-08-20T06:06:02Z,1629439563,2021,6,6,232.2542,232.2542,70.06498,-52.35941,-999.00,-999.00,-999.0,no,no,no,4435358,SPIT,USIABP,ICE-PPR<br>DiskoBay,North
2021-08-20T06:10:56Z,1629439857,2021,6,11,232.2576,232.2576,70.06492,-52.35938,-999.00,-999.00,-999.0,no,no,no,4435358,SPIT,USIABP,ICE-PPR<br>DiskoBay,North
2021-08-20T06:15:59Z,1629440159,2021,6,16,232.2611,232.2611,70.06462,-52.36023,-999.00,-999.00,-999.0,no,no,no,4435358,SPIT,USIABP,ICE-PPR<br>DiskoBay,North
2021-08-20T06:26:03Z,1629440764,2021,6,26,232.2681,232.2681,70.06498,-52.35947,-999.00,-999.00,-999.0,no,no,no,4435358,SPIT,USIABP,ICE-PPR<br>DiskoBay,North
2021-08-20T06:30:57Z,1629441058,2021,6,31,232.2715,232.2715,70.06451,-52.3605,-999.00,-999.00,-999.0,no,no,no,4435358,SPIT,USIABP,ICE-PPR<br>DiskoBay,North
2021-08-20T06:36:00Z,1629441360,2021,6,36,232.275,232.275,70.06451,-52.3605,-999.00,-999.00,-999.0,no,no,no,4435358,SPIT,USIABP,ICE-PPR<br>DiskoBay,North
2021-08-20T06:41:02Z,1629441662,2021,6,41,232.2785,232.2785,70.06489,-52.35971,-999.00,-999.00,-999.0,no,no,no,4435358,SPIT,USIABP,ICE-PPR<br>DiskoBay,North
2021-08-20T06:45:56Z,1629441956,2021,6,46,232.2819,232.2819,70.06467,-52.35973,-999.00,-999.00,-999.0,no,no,no,4435358,SPIT,USIABP,ICE-PPR<br>DiskoBay,North
2021-08-20T06:50:58Z,1629442259,2021,6,51,232.2854,232.2854,70.06453,-52.3605,-999.00,-999.00,-999.0,no,no,no,4435358,SPIT,USIABP,ICE-PPR<br>DiskoBay,North
2021-08-20T07:01:03Z,1629442863,2021,7,1,232.2924,232.2924,70.06486,-52.35949,-999.00,-999.00,-999.0,no,no,no,4435358,SPIT,USIABP,ICE-PPR<br>DiskoBay,North
2021-08-20T07:05:57Z,1629443157,2021,7,6,232.2958,232.2958,70.06452,-52.36026,-999.00,-999.00,-999.0,no,no,no,4435358,SPIT,USIABP,ICE-PPR<br>DiskoBay,North
2021-08-20T07:10:59Z,1629443460,2021,7,11,232.2993,232.2993,70.06452,-52.3606,-999.00,-999.00,-999.0,no,no,no,4435358,SPIT,USIABP,ICE-PPR<br>DiskoBay,North
2021-08-20T07:16:01Z,1629443762,2021,7,16,232.3028,232.3028,70.0648,-52.3598,-999.00,-999.00,-999.0,no,no,no,4435358,SPIT,USIABP,ICE-PPR<br>DiskoBay,North
2021-08-20T07:20:55Z,1629444056,2021,7,21,232.3062,232.3062,70.06496,-52.35944,-999.00,-999.00,-999.0,no,no,no,4435358,SPIT,USIABP,ICE-PPR<br>DiskoBay,North
2021-08-20T07:25:58Z,1629444358,2021,7,26,232.3097,232.3097,70.06447,-52.36022,-999.00,-999.00,-999.0,no,no,no,4435358,SPIT,USIABP,ICE-PPR<br>DiskoBay,North
2021-08-20T07:31:00Z,1629444660,2021,7,31,232.3132,232.3132,70.06447,-52.36065,-999.00,-999.00,-999.0,no,no,no,4435358,SPIT,USIABP,ICE-PPR<br>DiskoBay,North
2021-08-20T07:36:02Z,1629444963,2021,7,36,232.3167,232.3167,70.06468,-52.36005,-999.00,-999.00,-999.0,no,no,no,4435358,SPIT,USIABP,ICE-PPR<br>DiskoBay,North
2021-08-20T08:06:00Z,1629446760,2021,8,6,232.3375,232.3375,70.06479,-52.36002,-999.00,-999.00,-999.0,no,no,no,4435358,SPIT,USIABP,ICE-PPR<br>DiskoBay,North
2021-08-20T08:20:58Z,1629447659,2021,8,21,232.3479,232.3479,70.06485,-52.35971,-999.00,-999.00,-999.0,no,no,no,4435358,SPIT,USIABP,ICE-PPR<br>DiskoBay,North
2021-08-20T08:26:00Z,1629447961,2021,8,26,232.3514,232.3514,70.06471,-52.35997,-999.00,-999.00,-999.0,no,no,no,4435358,SPIT,USIABP,ICE-PPR<br>DiskoBay,North
2021-08-20T08:31:03Z,1629448263,2021,8,31,232.3549,232.3549,70.06462,-52.36014,-999.00,-999.00,-999.0,no,no,no,4435358,SPIT,USIABP,ICE-PPR<br>DiskoBay,North
2021-08-20T08:35:57Z,1629448557,2021,8,36,232.3583,232.3583,70.06471,-52.36032,-999.00,-999.00,-999.0,no,no,no,4435358,SPIT,USIABP,ICE-PPR<br>DiskoBay,North
2021-08-20T08:40:59Z,1629448860,2021,8,41,232.3618,232.3618,70.06476,-52.36032,-999.00,-999.00,-999.0,no,no,no,4435358,SPIT,USIABP,ICE-PPR<br>DiskoBay,North
2021-08-20T08:46:01Z,1629449162,2021,8,46,232.3653,232.3653,70.0648,-52.36057,-999.00,-999.00,-999.0,no,no,no,4435358,SPIT,USIABP,ICE-PPR<br>DiskoBay,North
2021-08-20T08:51:04Z,1629449464,2021,8,51,232.3688,232.3688,70.06483,-52.36038,-999.00,-999.00,-999.0,no,no,no,4435358,SPIT,USIABP,ICE-PPR<br>DiskoBay,North
2021-08-20T08:55:58Z,1629449758,2021,8,56,232.3722,232.3722,70.06487,-52.36038,-999.00,-999.00,-999.0,no,no,no,4435358,SPIT,USIABP,ICE-PPR<br>DiskoBay,North
2021-08-20T09:02:00Z,1629450121,2021,9,2,232.3764,232.3764,70.06485,-52.36044,-999.00,-999.00,-999.0,no,no,no,4435358,SPIT,USIABP,ICE-PPR<br>DiskoBay,North
2021-08-20T09:10:56Z,1629450657,2021,9,11,232.3826,232.3826,70.06487,-52.36102,-999.00,-999.00,-999.0,no,no,no,4435358,SPIT,USIABP,ICE-PPR<br>DiskoBay,North
2021-08-20T09:15:59Z,1629450959,2021,9,16,232.3861,232.3861,70.06462,-52.36118,-999.00,-999.00,-999.0,no,no,no,4435358,SPIT,USIABP,ICE-PPR<br>DiskoBay,North
2021-08-20T09:21:01Z,1629451261,2021,9,21,232.3896,232.3896,70.06475,-52.36179,-999.00,-999.00,-999.0,no,no,no,4435358,SPIT,USIABP,ICE-PPR<br>DiskoBay,North
2021-08-20T09:26:03Z,1629451564,2021,9,26,232.3931,232.3931,70.06486,-52.3624,-999.00,-999.00,-999.0,no,no,no,4435358,SPIT,USIABP,ICE-PPR<br>DiskoBay,North
2021-08-20T09:30:57Z,1629451858,2021,9,31,232.3965,232.3965,70.0651,-52.36319,-999.00,-999.00,-999.0,no,no,no,4435358,SPIT,USIABP,ICE-PPR<br>DiskoBay,North
2021-08-20T09:36:00Z,1629452160,2021,9,36,232.4,232.4,70.06507,-52.36252,-999.00,-999.00,-999.0,no,no,no,4435358,SPIT,USIABP,ICE-PPR<br>DiskoBay,North
2021-08-20T09:41:02Z,1629452462,2021,9,41,232.4035,232.4035,70.06516,-52.36261,-999.00,-999.00,-999.0,no,no,no,4435358,SPIT,USIABP,ICE-PPR<br>DiskoBay,North
2021-08-20T09:56:00Z,1629453361,2021,9,56,232.4139,232.4139,70.06528,-52.36279,-999.00,-999.00,-999.0,no,no,no,4435358,SPIT,USIABP,ICE-PPR<br>DiskoBay,North
2021-08-20T10:01:03Z,1629453663,2021,10,1,232.4174,232.4174,70.06537,-52.3627,-999.00,-999.00,-999.0,no,no,no,4435358,SPIT,USIABP,ICE-PPR<br>DiskoBay,North
2021-08-20T10:05:57Z,1629453957,2021,10,6,232.4208,232.4208,70.06631,-52.37592,-999.00,-999.00,-999.0,no,no,no,4435358,SPIT,USIABP,ICE-PPR<br>DiskoBay,North
2021-08-20T10:31:00Z,1629455460,2021,10,31,232.4382,232.4382,70.01784,-52.37999,-999.00,-999.00,-999.0,no,no,no,4435358,SPIT,USIABP,ICE-PPR<br>DiskoBay,North
2021-08-20T10:36:02Z,1629455763,2021,10,36,232.4417,232.4417,70.00681,-52.3672,-999.00,-999.00,-999.0,no,no,no,4435358,SPIT,USIABP,ICE-PPR<br>DiskoBay,North
2021-08-20T10:40:56Z,1629456057,2021,10,41,232.4451,232.4451,70.00218,-52.36566,-999.00,-999.00,-999.0,no,no,no,4435358,SPIT,USIABP,ICE-PPR<br>DiskoBay,North
2021-08-20T11:06:00Z,1629457560,2021,11,6,232.4625,232.4625,69.98183,-52.35904,-999.00,-999.00,-999.0,no,no,no,4435358,SPIT,USIABP,ICE-PPR<br>DiskoBay,North
2021-08-20T11:11:02Z,1629457862,2021,11,11,232.466,232.466,69.97942,-52.35629,-999.00,-999.00,-999.0,no,no,no,4435358,SPIT,USIABP,ICE-PPR<br>DiskoBay,North
2021-08-20T11:15:56Z,1629458156,2021,11,16,232.4694,232.4694,69.97771,-52.35226,-999.00,-999.00,-999.0,no,no,no,4435358,SPIT,USIABP,ICE-PPR<br>DiskoBay,North
2021-08-20T11:20:58Z,1629458459,2021,11,21,232.4729,232.4729,69.97683,-52.35032,-999.00,-999.00,-999.0,no,no,no,4435358,SPIT,USIABP,ICE-PPR<br>DiskoBay,North
2021-08-20T11:26:00Z,1629458761,2021,11,26,232.4764,232.4764,69.9755,-52.33504,-999.00,-999.00,-999.0,no,no,no,4435358,SPIT,USIABP,ICE-PPR<br>DiskoBay,North
2021-08-20T11:31:03Z,1629459063,2021,11,31,232.4799,232.4799,69.97404,-52.31839,-999.00,-999.00,-999.0,no,no,no,4435358,SPIT,USIABP,ICE-PPR<br>DiskoBay,North
2021-08-20T11:35:57Z,1629459357,2021,11,36,232.4833,232.4833,69.97542,-52.3006,-999.00,-999.00,-999.0,no,no,no,4435358,SPIT,USIABP,ICE-PPR<br>DiskoBay,North
2021-08-20T11:51:56Z,1629460316,2021,11,52,232.4944,232.4944,69.97378,-52.30507,-999.00,-999.00,-999.0,no,no,no,4435358,SPIT,USIABP,ICE-PPR<br>DiskoBay,North
2021-08-20T11:56:58Z,1629460619,2021,11,57,232.4979,232.4979,69.97013,-52.28619,-999.00,-999.00,-999.0,no,no,no,4435358,SPIT,USIABP,ICE-PPR<br>DiskoBay,North
2021-08-20T12:02:00Z,1629460921,2021,12,2,232.5014,232.5014,69.96841,-52.2728,-999.00,-999.00,-999.0,no,no,no,4435358,SPIT,USIABP,ICE-PPR<br>DiskoBay,North
2021-08-20T12:06:02Z,1629461163,2021,12,6,232.5042,232.5042,69.97,-52.27185,-999.00,-999.00,-999.0,no,no,no,4435358,SPIT,USIABP,ICE-PPR<br>DiskoBay,North
2021-08-20T12:15:59Z,1629461759,2021,12,16,232.5111,232.5111,69.96959,-52.28467,-999.00,-999.00,-999.0,no,no,no,4435358,SPIT,USIABP,ICE-PPR<br>DiskoBay,North
2021-08-20T12:21:01Z,1629462061,2021,12,21,232.5146,232.5146,69.96744,-52.28407,-999.00,-999.00,-999.0,no,no,no,4435358,SPIT,USIABP,ICE-PPR<br>DiskoBay,North
2021-08-20T12:26:03Z,1629462364,2021,12,26,232.5181,232.5181,69.96718,-52.27789,-999.00,-999.00,-999.0,no,no,no,4435358,SPIT,USIABP,ICE-PPR<br>DiskoBay,North
2021-08-20T12:30:57Z,1629462658,2021,12,31,232.5215,232.5215,69.97313,-52.26999,-999.00,-999.00,-999.0,no,no,no,4435358,SPIT,USIABP,ICE-PPR<br>DiskoBay,North
2021-08-20T12:41:02Z,1629463262,2021,12,41,232.5285,232.5285,69.98308,-52.25269,-999.00,-999.00,-999.0,no,no,no,4435358,SPIT,USIABP,ICE-PPR<br>DiskoBay,North
2021-08-20T12:51:59Z,1629463919,2021,12,52,232.5361,232.5361,69.97944,-52.24246,-999.00,-999.00,-999.0,no,no,no,4435358,SPIT,USIABP,ICE-PPR<br>DiskoBay,North
2021-08-20T12:57:01Z,1629464221,2021,12,57,232.5396,232.5396,69.97206,-52.22916,-999.00,-999.00,-999.0,no,no,no,4435358,SPIT,USIABP,ICE-PPR<br>DiskoBay,North
2021-08-20T13:02:03Z,1629464524,2021,13,2,232.5431,232.5431,69.96455,-52.21646,-999.00,-999.00,-999.0,no,no,no,4435358,SPIT,USIABP,ICE-PPR<br>DiskoBay,North
2021-08-20T13:05:57Z,1629464757,2021,13,6,232.5458,232.5458,69.95801,-52.20609,-999.00,-999.00,-999.0,no,no,no,4435358,SPIT,USIABP,ICE-PPR<br>DiskoBay,North
2021-08-20T13:25:58Z,1629465958,2021,13,26,232.5597,232.5597,69.92881,-52.15019,-999.00,-999.00,-999.0,no,no,no,4435358,SPIT,USIABP,ICE-PPR<br>DiskoBay,North
2021-08-20T13:31:00Z,1629466260,2021,13,31,232.5632,232.5632,69.9216,-52.13594,-999.00,-999.00,-999.0,no,no,no,4435358,SPIT,USIABP,ICE-PPR<br>DiskoBay,North
2021-08-20T13:36:02Z,1629466563,2021,13,36,232.5667,232.5667,69.91365,-52.12418,-999.00,-999.00,-999.0,no,no,no,4435358,SPIT,USIABP,ICE-PPR<br>DiskoBay,North
2021-08-20T13:40:56Z,1629466857,2021,13,41,232.5701,232.5701,69.90694,-52.10773,-999.00,-999.00,-999.0,no,no,no,4435358,SPIT,USIABP,ICE-PPR<br>DiskoBay,North
2021-08-20T13:45:59Z,1629467159,2021,13,46,232.5736,232.5736,69.89861,-52.09448,-999.00,-999.00,-999.0,no,no,no,4435358,SPIT,USIABP,ICE-PPR<br>DiskoBay,North
2021-08-20T13:52:01Z,1629467522,2021,13,52,232.5778,232.5778,69.88847,-52.07588,-999.00,-999.00,-999.0,no,no,no,4435358,SPIT,USIABP,ICE-PPR<br>DiskoBay,North
2021-08-20T13:56:55Z,1629467816,2021,13,57,232.5812,232.5812,69.87846,-52.05605,-999.00,-999.00,-999.0,no,no,no,4435358,SPIT,USIABP,ICE-PPR<br>DiskoBay,North
2021-08-20T14:01:58Z,1629468118,2021,14,2,232.5847,232.5847,69.86735,-52.03339,-999.00,-999.00,-999.0,no,no,no,4435358,SPIT,USIABP,ICE-PPR<br>DiskoBay,North
2021-08-20T14:06:00Z,1629468360,2021,14,6,232.5875,232.5875,69.86087,-52.00449,-999.00,-999.00,-999.0,no,no,no,4435358,SPIT,USIABP,ICE-PPR<br>DiskoBay,North
2021-08-20T14:11:02Z,1629468662,2021,14,11,232.591,232.591,69.8533,-51.96936,-999.00,-999.00,-999.0,no,no,no,4435358,SPIT,USIABP,ICE-PPR<br>DiskoBay,North
2021-08-20T14:15:56Z,1629468956,2021,14,16,232.5944,232.5944,69.8443,-51.92584,-999.00,-999.00,-999.0,no,no,no,4435358,SPIT,USIABP,ICE-PPR<br>DiskoBay,North
2021-08-20T14:20:58Z,1629469259,2021,14,21,232.5979,232.5979,69.83502,-51.88049,-999.00,-999.00,-999.0,no,no,no,4435358,SPIT,USIABP,ICE-PPR<br>DiskoBay,North
2021-08-20T14:26:00Z,1629469561,2021,14,26,232.6014,232.6014,69.82572,-51.83517,-999.00,-999.00,-999.0,no,no,no,4435358,SPIT,USIABP,ICE-PPR<br>DiskoBay,North
2021-08-20T14:31:03Z,1629469863,2021,14,31,232.6049,232.6049,69.81639,-51.7896,-999.00,-999.00,-999.0,no,no,no,4435358,SPIT,USIABP,ICE-PPR<br>DiskoBay,North
2021-08-20T14:35:57Z,1629470157,2021,14,36,232.6083,232.6083,69.80712,-51.74557,-999.00,-999.00,-999.0,no,no,no,4435358,SPIT,USIABP,ICE-PPR<br>DiskoBay,North
2021-08-20T14:51:56Z,1629471116,2021,14,52,232.6194,232.6194,69.79233,-51.67382,-999.00,-999.00,-999.0,no,no,no,4435358,SPIT,USIABP,ICE-PPR<br>DiskoBay,North
2021-08-20T14:56:58Z,1629471419,2021,14,57,232.6229,232.6229,69.78954,-51.65777,-999.00,-999.00,-999.0,no,no,no,4435358,SPIT,USIABP,ICE-PPR<br>DiskoBay,North
2021-08-20T15:02:00Z,1629471721,2021,15,2,232.6264,232.6264,69.7883,-51.63528,-999.00,-999.00,-999.0,no,no,no,4435358,SPIT,USIABP,ICE-PPR<br>DiskoBay,North
2021-08-20T15:06:02Z,1629471963,2021,15,6,232.6292,232.6292,69.78754,-51.62305,-999.00,-999.00,-999.0,no,no,no,4435358,SPIT,USIABP,ICE-PPR<br>DiskoBay,North
2021-08-20T15:10:56Z,1629472257,2021,15,11,232.6326,232.6326,69.7884,-51.61734,-999.00,-999.00,-999.0,no,no,no,4435358,SPIT,USIABP,ICE-PPR<br>DiskoBay,North
2021-08-20T15:15:59Z,1629472559,2021,15,16,232.6361,232.6361,69.79007,-51.61725,-999.00,-999.00,-999.0,no,no,no,4435358,SPIT,USIABP,ICE-PPR<br>DiskoBay,North
2021-08-20T15:21:01Z,1629472861,2021,15,21,232.6396,232.6396,69.79129,-51.62756,-999.00,-999.00,-999.0,no,no,no,4435358,SPIT,USIABP,ICE-PPR<br>DiskoBay,North
2021-08-20T15:30:57Z,1629473458,2021,15,31,232.6465,232.6465,69.79013,-51.62046,-999.00,-999.00,-999.0,no,no,no,4435358,SPIT,USIABP,ICE-PPR<br>DiskoBay,North
2021-08-20T15:36:00Z,1629473760,2021,15,36,232.65,232.65,69.79824,-51.63874,-999.00,-999.00,-999.0,no,no,no,4435358,SPIT,USIABP,ICE-PPR<br>DiskoBay,North
2021-08-20T15:41:02Z,1629474062,2021,15,41,232.6535,232.6535,69.80463,-51.6499,-999.00,-999.00,-999.0,no,no,no,4435358,SPIT,USIABP,ICE-PPR<br>DiskoBay,North
2021-08-20T15:45:56Z,1629474356,2021,15,46,232.6569,232.6569,69.80594,-51.65886,-999.00,-999.00,-999.0,no,no,no,4435358,SPIT,USIABP,ICE-PPR<br>DiskoBay,North
2021-08-20T15:50:58Z,1629474659,2021,15,51,232.6604,232.6604,69.80276,-51.65448,-999.00,-999.00,-999.0,no,no,no,4435358,SPIT,USIABP,ICE-PPR<br>DiskoBay,North
2021-08-20T15:56:00Z,1629474961,2021,15,56,232.6639,232.6639,69.80542,-51.64813,-999.00,-999.00,-999.0,no,no,no,4435358,SPIT,USIABP,ICE-PPR<br>DiskoBay,North
2021-08-20T16:02:03Z,1629475324,2021,16,2,232.6681,232.6681,69.8062,-51.65479,-999.00,-999.00,-999.0,no,no,no,4435358,SPIT,USIABP,ICE-PPR<br>DiskoBay,North
2021-08-20T16:36:02Z,1629477363,2021,16,36,232.6917,232.6917,69.71666,-51.58304,-999.00,-999.00,-999.0,no,no,no,4435358,SPIT,USIABP,ICE-PPR<br>DiskoBay,North
2021-08-20T16:52:01Z,1629478322,2021,16,52,232.7028,232.7028,69.66497,-51.54336,-999.00,-999.00,-999.0,no,no,no,4435358,SPIT,USIABP,ICE-PPR<br>DiskoBay,North
2021-08-20T16:56:55Z,1629478616,2021,16,57,232.7062,232.7062,69.64798,-51.52628,-999.00,-999.00,-999.0,no,no,no,4435358,SPIT,USIABP,ICE-PPR<br>DiskoBay,North
2021-08-20T17:01:58Z,1629478918,2021,17,2,232.7097,232.7097,69.62931,-51.50723,-999.00,-999.00,-999.0,no,no,no,4435358,SPIT,USIABP,ICE-PPR<br>DiskoBay,North